Regional Weather Roundup
Issued by NWS Charleston, SC

Current Version | Previous Version | Graphics & Text | Print | Product List | Glossary On
Versions: 1 2 3 4 5 6 7 8 9 10 11 12 13 14 15 16 17 18 19 20 21 22 23 24 25 26 27 28 29 30 31 32 33 34 35 36 37 38 39 40 41 42 43 44 45 46 47 48 49 50
000 ASUS42 KCHS 291328 RWRCHS REGIONAL WEATHER ROUNDUP NATIONAL WEATHER SERVICE CHARLESTON SC 900 AM EDT SUN MAY 29 2016 NOTE: "FAIR" INDICATES FEW OR NO CLOUDS BELOW 12,000 FEET WITH NO SIGNIFICANT WEATHER AND/OR OBSTRUCTIONS TO VISIBILITY. NOT ALL STATIONS ARE QUALITY CONTROLLED. USE DATA WITH CAUTION... ESPECIALLY DEWPOINT OBSERVATIONS. SCZ027-030-031-034>040-042>050-291400- ...SOUTHEAST SOUTH CAROLINA... CITY SKY/WX TMP DP RH WIND PRES REMARKS N CHARLESTON TSTM 73 71 93 W31G40 29.79F VSB 1/2 WATERFRONT PRK N/A 73 73 100 W8 29.81F MOUNT PLEASANT FOG 75 73 94 S12G21 29.83R VSB 1 JOHNS ISLAND TSTM 73 73 100 NW18 29.86F PINOPOLIS NOT AVBL MONCKS CORNER TSTM 70 68 94 N13G21 29.85F SUMMERVILLE TSTM 72 72 100 NW9G16 29.90F BEAUFORT MCAS CLOUDY 70 69 97 W8 29.94R BEAUFORT ARPT CLOUDY 70 70 100 W9 29.93S HILTON HEAD IS NOT AVBL WALTERBORO TSTM 73 73 100 NW9 29.94S ALLENDALE RAIN 66 66 100 NW10 29.99S VSB 3/4 ...SOUTHERN MIDLANDS AND PEE DEE... CITY SKY/WX TMP DP RH WIND PRES REMARKS GEORGETOWN CLOUDY 75 72 88 E15G22 29.94S KINGSTREE CLOUDY 72 70 94 N7 29.96S ORANGEBURG RAIN 70 67 90 N14G23 29.97F FOG BARNWELL CLOUDY 70 70 100 N14G22 30.02S AIKEN CLOUDY 64 63 94 NW14G24 30.10F MANNING TSTM 70 70 100 N12G20 29.95F COLUMBIA LGT RAIN 70 67 90 N13G18 30.03S FOG SUMTER LGT RAIN 72 70 94 N15 29.98S FLORENCE LGT RAIN 73 70 90 NE12 30.02R MYRTLE BEACH PTSUNNY N/A N/A N/A E8 30.00R N MYRTLE BEACH PTSUNNY 79 73 82 E12 29.99S $$ GAZ063-065-086>088-099>101-113>116-118-119-134>141-150-291400- ...SOUTHEAST GEORGIA... CITY SKY/WX TMP DP RH WIND PRES REMARKS SAVANNAH ARPT RAIN 70 66 87 NW20G33 29.98S FOG HUNTER AAF CLOUDY 69 69 100 W8 29.96R FORT STEWART LGT RAIN 73 64 73 NW17G24 30.02R STATESBORO HVY RAIN 68 68 99 NW16 30.04R SYLVANIA HVY RAIN 69 67 93 N16G25 30.04R CLAXTON HVY RAIN 67 67 99 W12 30.07R ...CSRA...CENTRAL AND FAR SOUTHEAST GEORGIA... CITY SKY/WX TMP DP RH WIND PRES REMARKS THOMSON CLOUDY 69 69 100 N5 30.17S AUGUSTA-BUSH RAIN 66 65 96 NW16 30.07R FOG AUGUSTA-DANIEL RAIN 66 62 87 N21G29 30.10R FOG SWAINSBORO PTSUNNY 68 64 88 NW8 30.09S VIDALIA CLOUDY 70 63 78 NW10G17 30.10R EASTMAN FAIR 72 70 92 NW3 30.13S HAZLEHURST FAIR 74 65 72 N6 30.10R ALMA MOSUNNY 71 65 81 W5 30.09R WAYCROSS SUNNY 75 66 74 NW7 30.10R JESUP PTSUNNY 68 63 83 NE12 30.07R BAXLEY CLOUDY 73 66 78 NW12 30.09R BRUNSWICK MOSUNNY 77 68 73 W8G17 30.06S SAINT SIMONS SUNNY 73 66 78 W10G17 30.05R $$ SCZ027-028-034-036>038-045-046-048>050-GAZ119-141-291400- ...LAKE AND SUPPLEMENTAL COASTAL OBSERVATIONS... STATION/POSITION TIME TEMP WIND PRES WAVE SWELL AIR SEA DIR/SP/G HT/PER HT/PER/DIR (UTC) (F) (DEG/KT/KT) (MB) (FT/S) (FT/S/D) WINYAH BAY 1245 77 110/ 13 1013.0S LAKE MURRAY 1200 67 330/ 4/ 11 1017.3S ACE BASIN NERRS 1200 70 300/ 2 1013.0S FORT PULASKI 1300 69 76 280/ 21/ 25 1015.0R SAPELO ISLAND 1300 74 300/ 14 1017.0S $$ ANZ835-935-AMZ111-154-330-350-352-354-370-450-454-472-291400- ...C-MAN AND BUOY OBSERVATIONS... STATION/POSITION TIME TEMP WIND PRES WAVE SWELL AIR SEA DIR/SP/G HT/PER HT/PER/DIR (UTC) (F) (DEG/KT/KT) (MB) (FT/S) (FT/S/D) BUOY 41004 1250 77 78 180/ 17/ 21 1012.7R 7/ 7 BUOY 41008 1250 72 75 270/ 19/ 23 1016.0R 4/ 4 2/ 60/ 9 FOLLY BEACH CMAN 1300 73 250/ 14/ 19 1011.0R CAPERS NEARSHORE 1308 74 76 220/ 19/ 27 1010.4R FRIPP NEARSHORE 1308 70 76 270/ 16/ 19 1013.1R STATION/POSITION TIME TEMP WIND PRES WAVE SWELL AIR SEA DIR/SP/G HT/PER HT/PER/DIR (UTC) (F) (DEG/KT/KT) (MB) (FT/S) (FT/S/D) 5E ST. MARYS GA 1301 78 N/A 3/ 8 FRYING PAN BUOY 1300 79 78 150/ 19/ 25 1016.0R BUOY 41025 1250 79 75 150/ 19/ 23 1019.3R 5/ 6 2/260/15 CAPE LOOKOUT NC 1300 74 150/ 16/ 18 1018.3R BUOY 41002 1250 76 75 120/ 10/ 12 1019.3R 4/ 7 3/ 90/ 7 BUOY 41010 1220 79 79 240/ 10/ 10 1017.5R ST AUGUSTINE FL 1300 74 78 320/ 9/ 10 1019.2R $$

USA.gov is the U.S. government's official web portal to all federal, state and local government web resources and services.